RH
74 74 79 83 83 78 80 89 92 93 91 87 88 90 90 88 86 84 81 81 80 77 78 81 81 81 79 77 78 79 78 75 75 76 75 75 74 73 72 70 71 71 73 76 78 80 80 80 79 77 74 72
78 77 80 84 86 75 74 88 95 98 98 96 95 96 96 94 93 92 89 88 92 91 90 91 91 90 87 83 83 82 79 77 77 78 76 74 72 70 68 67 67 67 68 69 69 70 70 71 72 73 73 71
86 87 89 87 85 77 75 86 94 99 99 97 97 96 96 95 95 96 95 92 93 95 97 97 97 97 94 89 86 83 81 79 78 78 75 72 71 69 67 67 67 67 66 65 64 62 62 63 65 66 67 66
91 93 97 90 85 81 80 84 88 92 92 90 90 90 92 92 92 93 95 94 92 91 93 95 96 97 96 92 88 85 83 81 79 76 73 70 68 66 63 61 61 61 61 61 60 60 60 61 62 63 62 62
91 94 99 93 86 84 89 94 93 94 95 94 94 95 96 96 96 96 97 98 95 92 93 95 96 98 97 93 89 86 82 79 77 72 68 64 61 57 54 53 53 53 54 56 57 58 59 61 62 62 60 61
85 89 93 91 84 79 84 92 95 95 97 96 95 94 89 87 91 94 95 94 92 90 91 93 94 95 94 91 87 83 78 74 70 65 60 55 51 48 46 47 47 48 49 50 53 55 58 61 63 63 64 64
74 84 85 83 78 71 70 76 84 90 95 94 89 86 82 81 83 83 86 87 86 84 82 83 86 89 89 87 83 77 73 68 63 56 51 47 43 41 41 42 43 44 45 47 50 52 57 61 62 63 65 66
40 56 59 56 51 47 46 52 60 64 71 74 67 66 73 81 86 86 86 88 88 85 81 79 80 82 81 80 76 71 66 61 53 47 43 40 37 35 34 35 36 37 38 40 41 44 48 51 53 56 58 60
14 21 22 21 19 17 17 21 26 24 26 30 28 29 37 48 57 63 65 64 62 60 57 54 53 53 53 53 53 51 48 43 38 35 33 31 29 27 26 26 27 28 30 31 32 35 37 39 42 45 48 51
14 14 13 13 12 11 10 10 11 10 9 9 9 9 11 15 19 22 25 25 25 24 24 23 22 23 24 26 28 27 27 26 25 24 24 22 21 20 19 19 19 21 23 25 27 30 31 33 35 38 42 45
20 19 19 18 17 17 17 17 16 15 15 13 13 12 12 13 13 14 15 17 17 16 16 17 17 16 17 19 19 17 17 19 19 19 20 18 16 16 16 16 17 18 20 21 23 25 27 27 29 32 35 39
27 26 27 26 24 24 23 23 23 22 21 21 21 22 22 21 22 22 22 24 24 22 21 22 22 21 21 21 21 19 18 19 19 19 20 18 16 16 16 17 18 19 18 19 21 22 24 25 26 30 31 35
29 30 33 32 29 29 30 29 29 29 28 28 28 29 30 29 28 28 29 29 29 27 26 26 26 26 26 25 24 22 21 23 23 21 22 22 19 18 18 19 20 19 19 20 21 22 24 26 27 31 34 37
30 34 37 35 33 36 37 35 35 36 35 34 33 33 34 33 33 32 33 33 32 31 30 30 29 29 29 28 27 26 26 28 26 22 24 25 21 20 20 20 23 23 22 23 23 25 27 29 31 34 37 40
33 38 41 39 42 43 42 41 41 41 40 38 37 37 38 38 38 37 37 37 35 35 34 33 32 32 32 31 34 34 32 31 28 26 28 30 27 25 24 24 26 27 26 26 26 28 30 32 33 36 38 41
40 43 44 45 48 48 47 46 45 44 42 42 41 41 41 42 42 41 42 42 40 39 38 37 35 36 35 36 40 40 37 37 36 32 32 33 31 29 30 29 30 30 29 29 29 32 34 35 37 39 41 45
48 50 49 49 50 49 48 47 46 45 45 45 44 44 44 45 47 48 48 48 48 46 44 43 42 42 42 42 43 43 44 44 42 38 36 37 36 36 38 36 34 36 37 36 36 38 41 42 44 47 51 53
54 55 53 51 50 49 48 47 48 49 50 50 50 49 49 51 54 56 56 55 55 55 54 53 52 51 50 48 48 49 50 48 45 43 43 46 46 44 43 40 39 41 43 41 40 41 46 50 53 54 55 56
60 59 55 53 52 52 52 52 53 54 55 56 56 56 57 59 61 63 63 62 60 60 60 60 60 59 59 58 56 58 58 55 54 55 56 57 55 52 50 48 48 48 48 45 43 44 49 55 56 54 53 56
68 65 61 59 59 59 59 60 62 62 62 62 63 63 64 65 67 68 69 69 67 65 64 64 66 67 66 64 62 62 62 63 65 67 69 68 66 65 63 59 56 53 50 48 47 47 50 53 53 52 54 57
75 71 68 68 68 69 70 72 74 74 73 72 72 71 71 70 70 71 72 72 70 68 67 68 71 72 70 68 65 63 63 65 68 70 74 74 73 72 69 65 60 55 51 46 43 42 42 43 43 45 48 52
81 78 77 79 80 82 84 85 83 82 81 80 79 77 74 73 71 71 71 72 70 69 69 73 77 77 74 71 67 65 64 65 67 68 72 75 75 74 73 72 68 63 58 52 47 42 38 36 35 35 37 40
86 85 87 90 91 92 92 89 86 83 82 81 80 78 76 74 73 72 72 72 69 66 68 76 84 84 81 76 70 66 64 65 66 68 70 73 74 74 75 76 73 71 69 64 59 53 47 41 36 33 32 32
90 93 95 98 99 98 94 89 85 82 80 79 80 80 80 79 78 77 75 73 68 63 63 73 85 88 87 83 76 70 68 68 68 68 69 70 72 73 75 75 73 74 75 72 68 65 61 54 47 40 35 32
99 101 101 101 101 97 92 86 83 82 82 83 84 85 85 84 84 84 84 82 77 71 66 69 79 87 91 91 86 81 79 78 76 73 71 68 68 70 73 73 72 75 75 73 71 70 69 65 60 54 48 42
103 103 101 100 99 95 91 89 88 90 91 91 91 91 90 88 87 89 90 89 88 85 82 78 78 82 87 90 90 88 87 87 85 83 78 73 71 70 72 74 74 74 74 73 73 72 71 69 66 63 60 56
102 101 101 101 100 98 97 97 97 98 98 98 99 99 97 94 91 90 89 88 88 88 88 86 83 81 81 82 84 85 85 85 85 85 84 81 77 74 72 72 71 71 71 70 70 69 69 68 67 65 64 62
101 101 101 102 102 101 101 102 101 101 100 100 99 97 95 93 91 91 89 89 89 88 87 86 84 81 79 78 78 78 80 82 85 87 88 88 86 83 79 76 73 72 71 69 67 67 67 67 66 66 65 64
100 100 100 100 101 101 101 100 98 97 96 95 93 90 89 88 88 87 87 87 86 86 87 86 86 85 83 81 80 79 79 81 82 83 85 87 89 90 88 85 82 80 77 74 72 70 69 68 68 67 67 65
101 101 100 100 100 100 99 98 98 97 95 93 91 88 86 84 82 81 80 79 79 80 81 81 81 81 82 82 83 83 82 82 83 84 85 87 89 90 90 88 86 84 80 77 75 74 71 69 68 67 66 64
97 95 96 98 100 100 100 100 100 98 94 89 84 80 77 76 75 75 75 74 75 75 75 75 75 77 79 80 82 84 85 86 87 88 88 88 87 87 85 83 82 81 79 76 74 74 73 71 69 67 66 65
Wind_Speed
40 40 39 38 38 38 37 36 35 35 36 37 38 38 38 38 39 39 39 40 39 39 38 38 38 38 39 38 38 38 37 38 37 37 38 38 38 39 39 39 39 39 40 40 41 42 43 43 44 45 45 45
37 37 37 37 37 39 37 37 36 36 36 37 38 39 39 39 40 40 40 40 40 40 39 40 40 40 40 40 40 40 40 40 39 40 40 40 41 41 42 42 42 42 42 43 44 44 45 45 46 46 46 46
36 35 36 37 37 39 38 38 37 36 37 37 37 38 38 39 39 40 40 41 41 42 42 42 42 42 42 42 42 42 42 42 42 42 43 43 44 44 44 44 45 45 45 46 46 46 47 47 47 47 47 47
36 35 37 40 39 39 39 38 38 38 38 39 38 37 38 39 39 40 41 42 43 43 43 44 44 44 44 44 44 44 44 44 44 45 45 45 46 46 46 46 46 46 47 47 47 47 47 47 47 47 47 47
37 36 38 41 41 40 39 39 39 39 38 39 38 39 40 41 40 40 41 42 43 44 44 45 45 45 45 46 46 46 46 46 47 47 47 47 47 47 47 47 47 47 47 47 47 47 47 46 46 46 46 46
40 39 40 42 42 41 41 41 42 42 42 41 41 42 44 45 44 44 44 44 43 44 45 45 46 46 46 47 47 48 48 47 48 48 47 48 48 48 47 47 46 46 47 47 47 47 46 46 46 46 46 46
42 42 43 43 43 43 42 42 43 45 45 45 46 46 46 47 48 48 48 47 46 46 47 47 47 47 47 47 48 49 49 49 48 48 48 49 49 48 48 47 47 47 47 47 47 47 47 47 47 47 47 47
44 45 45 46 46 45 44 44 45 46 47 47 48 48 48 48 48 49 50 50 49 49 49 49 49 49 49 49 50 50 50 50 50 50 50 50 50 50 50 49 49 48 48 48 48 48 48 49 49 49 49 49
44 45 46 46 46 46 46 46 46 47 48 48 48 49 49 49 49 50 50 51 51 50 50 50 50 51 50 50 51 51 51 51 51 51 51 51 51 51 51 51 51 50 50 50 50 50 50 50 50 50 50 50
44 44 45 45 46 46 46 46 46 47 47 47 48 48 49 49 49 49 49 50 50 50 50 50 50 50 50 50 51 51 51 51 51 51 51 52 52 52 52 52 52 52 52 52 51 51 51 52 52 51 51 51
44 45 45 46 46 46 47 47 47 47 48 48 48 48 48 48 48 49 49 49 49 50 49 49 50 50 49 50 50 51 51 51 51 51 52 53 53 53 53 53 53 53 53 53 53 53 53 53 53 53 53 52
45 45 46 47 47 48 48 48 48 48 49 48 48 47 47 48 48 49 49 49 50 50 50 50 50 50 50 50 51 51 51 52 52 52 52 53 54 54 54 54 54 54 54 54 54 54 54 54 54 54 54 53
47 47 47 48 48 49 49 49 49 49 49 48 48 47 48 48 49 49 49 49 50 50 50 50 50 50 50 50 51 52 52 52 53 53 53 54 55 55 55 55 55 55 55 55 55 55 55 54 54 54 54 54
49 49 49 50 50 49 49 49 48 48 48 48 48 48 48 48 49 49 49 50 50 50 50 50 50 50 51 51 51 52 52 53 53 54 54 55 55 56 56 55 55 55 55 55 55 55 55 55 55 55 55 55
51 51 52 51 51 49 49 48 48 47 48 48 48 49 49 49 49 50 50 50 50 51 51 51 51 51 51 51 51 51 52 53 54 54 53 54 55 55 56 56 56 56 55 55 55 55 55 55 55 55 55 56
53 53 53 52 51 51 50 50 49 49 49 50 50 50 50 50 50 50 50 50 50 51 51 52 52 52 52 52 52 52 53 53 54 54 54 55 55 55 56 56 56 56 56 56 55 55 55 56 56 56 56 56
52 53 53 53 52 52 52 52 52 51 51 51 52 52 51 51 50 50 50 50 50 51 52 52 52 52 52 52 53 53 53 53 54 54 55 55 55 55 56 56 56 56 57 56 56 56 56 56 56 56 56 56
52 52 53 53 53 54 54 54 53 53 52 52 52 52 52 51 51 51 51 51 51 51 51 52 52 52 53 53 53 53 54 54 54 54 55 55 56 55 56 56 56 56 57 57 56 56 57 57 57 57 57 58
52 52 53 53 53 53 53 53 53 53 53 52 52 52 52 51 51 51 52 52 52 52 52 52 53 53 53 53 53 53 54 54 54 54 54 55 56 56 56 56 56 56 57 57 57 57 57 58 58 59 59 58
51 52 52 53 53 53 53 53 53 53 53 52 52 52 52 52 52 52 52 53 53 53 53 53 53 53 53 54 54 54 54 54 54 54 55 55 55 55 56 56 56 56 57 57 57 57 58 59 59 59 59 59
51 52 52 52 52 52 52 52 52 52 52 52 52 52 52 52 53 53 53 54 54 54 54 54 54 54 54 54 55 55 55 55 55 55 56 56 56 56 56 56 57 57 57 57 57 58 59 60 60 60 60 60
52 52 52 52 53 52 52 52 52 52 52 52 53 53 53 53 53 54 54 54 54 54 54 55 55 55 55 55 56 56 56 57 57 57 57 57 58 58 58 58 58 58 58 58 58 58 59 60 60 61 61 62
52 52 53 53 53 53 53 53 53 53 53 53 54 54 54 54 54 54 54 54 55 55 55 55 56 57 57 57 56 56 57 57 58 58 59 59 60 60 60 61 61 61 60 60 60 60 60 60 61 61 62 62
53 53 54 54 54 54 54 54 54 54 55 55 55 55 54 54 54 54 55 55 56 56 56 56 57 58 59 59 58 58 57 58 58 59 60 61 61 62 63 64 64 64 64 64 63 62 62 62 63 63 63 63
54 55 55 55 55 56 56 55 55 55 54 54 54 54 54 54 54 54 55 55 56 56 57 57 58 59 60 60 60 60 60 60 60 61 61 62 63 64 65 65 65 65 66 66 66 65 65 65 65 65 65 65
56 56 56 56 56 56 55 54 53 53 53 53 53 53 54 54 54 55 55 56 56 57 57 58 59 60 61 62 62 63 63 63 63 63 63 64 64 65 66 67 67 67 67 67 67 67 67 67 68 68 68 68
56 57 56 56 55 54 53 53 53 53 53 53 54 54 55 55 56 57 57 58 58 58 59 59 60 61 62 63 64 65 66 66 66 66 66 66 66 66 67 68 68 68 68 68 68 69 69 69 69 70 70 70
56 55 55 55 55 54 54 54 55 55 55 55 56 56 57 57 58 58 59 59 60 60 61 61 62 63 64 65 66 67 67 68 67 67 67 67 68 68 68 69 69 69 70 69 69 70 71 71 71 71 71 71
55 55 55 56 57 57 57 58 58 59 59 59 59 60 60 60 60 61 61 62 63 63 63 64 64 65 66 66 67 68 69 69 69 69 70 70 70 70 71 71 71 72 72 71 71 71 72 72 72 72 72 72
55 56 57 58 59 60 60 61 61 62 62 62 62 63 63 63 64 64 64 65 65 65 65 66 66 66 67 67 67 68 69 69 70 70 71 71 71 71 72 72 72 73 73 73 73 73 73 73 73 73 74 74
55 56 57 59 60 61 62 62 62 62 63 63 64 64 64 64 65 65 65 66 66 66 66 67 67 67 67 67 68 68 69 69 70 70 71 71 71 72 73 73 74 74 75 75 75 75 75 75 76 76 76 77
Wind_Direction
258 258 258 259 261 260 260 259 260 260 260 260 261 261 262 262 263 263 263 264 264 265 266 267 267 267 268 268 268 268 269 270 271 272 274 274 275 276 276 276 276 276 276 275 275 274 274 274 274 274 274 274
257 259 259 258 259 261 260 258 258 259 261 261 262 263 263 262 263 263 264 265 267 268 269 269 269 269 269 269 270 271 272 272 273 274 274 275 275 275 275 275 275 275 275 275 274 274 273 273 273 273 273 274
255 257 259 258 257 260 260 259 258 259 260 260 262 263 264 264 264 264 265 266 267 268 269 270 270 270 270 271 272 273 273 274 275 275 275 275 275 275 275 275 275 275 274 274 273 273 273 273 273 273 273 274
253 254 256 257 258 260 261 262 262 263 263 264 264 264 266 267 267 267 267 266 266 267 267 268 269 270 271 271 272 272 273 274 275 275 275 276 275 275 275 274 274 274 273 273 273 273 272 272 273 273 273 274
250 251 253 257 258 259 260 262 263 263 264 264 264 263 264 265 266 266 266 266 265 266 266 266 267 269 270 271 271 272 272 273 274 275 275 275 275 275 274 274 273 273 273 272 272 272 272 272 272 272 273 273
252 252 252 256 258 259 259 259 260 260 260 260 260 259 259 261 264 266 266 266 266 266 266 267 268 269 271 271 271 271 272 273 274 275 275 275 275 275 274 274 273 273 272 272 272 272 272 272 272 272 272 272
256 256 256 258 259 260 261 261 262 262 261 261 261 261 260 261 263 265 267 268 268 267 268 268 269 271 272 272 271 272 272 273 274 274 274 274 274 274 274 274 273 273 272 272 272 272 272 272 272 272 272 272
259 260 261 262 263 264 264 263 263 264 264 264 265 265 265 264 265 266 267 269 270 270 270 270 271 271 272 272 272 272 273 273 274 274 274 274 273 273 273 274 273 273 273 273 273 272 272 272 272 272 272 272
261 261 262 263 264 264 264 264 264 264 264 265 266 266 266 267 267 268 269 270 272 272 272 272 272 272 272 272 272 272 272 273 273 273 273 273 273 273 273 273 273 273 273 273 273 273 273 273 272 272 272 272
260 260 261 262 263 263 263 264 264 264 265 265 266 266 267 268 269 270 271 271 272 272 272 273 273 273 273 273 273 272 272 272 272 272 272 272 272 273 273 273 273 273 273 273 273 273 273 273 273 272 272 272
259 260 260 261 262 263 263 264 265 265 265 266 266 267 268 269 270 271 272 273 273 273 273 273 273 273 274 274 274 274 274 274 274 273 273 273 273 273 273 273 273 273 272 273 272 272 272 272 272 272 272 272
260 261 261 261 262 263 264 264 265 266 266 267 268 269 269 270 271 272 272 273 274 274 274 274 275 275 275 275 275 275 275 275 274 274 274 274 274 273 273 273 273 273 273 273 272 272 273 273 273 273 273 273
261 262 262 262 263 263 264 265 266 267 268 268 269 270 271 271 271 271 272 273 273 274 274 275 275 275 275 275 275 276 276 275 274 275 274 274 275 275 275 274 274 274 274 274 273 273 273 273 273 273 273 273
262 263 264 264 265 266 266 267 268 269 270 270 271 271 271 271 271 271 272 272 273 273 274 274 275 275 275 275 275 275 275 275 275 275 275 275 276 276 276 275 275 275 274 274 274 274 273 273 272 272 272 272
264 265 265 266 267 268 269 270 270 271 272 272 271 271 270 270 270 271 271 272 272 273 273 273 274 274 274 274 274 273 273 274 274 275 274 275 275 276 276 276 276 275 275 275 275 274 273 273 272 272 271 271
265 266 267 268 269 271 271 272 272 272 272 272 271 271 271 271 271 271 271 271 271 271 271 272 272 272 272 272 272 272 272 273 273 274 274 274 274 275 275 276 275 276 276 275 275 275 274 273 273 272 271 271
266 267 268 269 270 271 272 272 273 273 272 272 272 272 272 272 271 271 271 270 270 270 271 271 271 271 271 271 271 271 271 271 272 273 273 274 274 274 274 274 274 275 275 275 274 274 274 274 273 272 272 271
266 267 268 269 270 271 271 272 272 272 271 271 271 271 272 271 271 270 271 271 270 270 271 271 271 271 271 271 271 271 271 271 272 273 273 273 273 273 273 273 273 273 273 273 274 274 274 274 273 273 272 272
266 266 267 268 269 270 270 270 270 270 270 270 270 270 270 270 270 270 270 270 271 271 271 271 271 272 272 272 272 272 272 272 273 272 272 272 272 273 273 273 273 273 272 273 273 273 273 272 272 272 272 272
265 266 267 268 268 268 268 268 268 269 269 269 269 269 269 269 270 270 270 270 270 271 271 271 271 271 272 272 273 272 273 273 272 272 271 271 271 272 272 272 272 273 273 273 273 272 272 272 272 272 272 272
264 265 266 267 267 267 267 268 268 268 268 269 269 269 268 269 269 269 269 270 270 271 271 271 270 270 271 272 273 273 273 273 272 271 271 271 271 271 271 272 273 273 273 273 273 273 272 272 272 273 272 272
264 265 266 266 267 267 267 267 268 268 268 268 268 268 268 268 268 269 269 269 269 270 269 269 269 269 270 271 272 272 272 272 272 272 271 271 271 271 272 272 273 274 275 275 275 275 274 274 274 274 273 273
263 265 265 266 266 267 267 268 268 268 268 268 268 268 268 268 268 269 269 269 269 269 269 268 268 269 269 271 272 272 273 273 273 273 272 272 272 272 272 272 273 274 275 276 276 277 277 277 276 275 274 274
264 264 264 264 265 265 266 267 267 268 268 268 268 268 268 268 269 269 269 270 270 270 269 268 268 269 269 270 272 273 274 274 274 274 274 273 273 273 272 272 273 274 274 275 276 277 278 278 278 277 276 275
264 264 263 263 263 264 265 266 267 268 268 268 268 268 268 269 269 270 270 270 270 270 270 270 269 269 270 270 271 273 273 274 275 275 275 275 275 274 274 274 274 274 274 275 275 276 277 277 277 277 277 276
263 263 263 263 263 265 265 266 267 267 268 268 268 268 268 269 269 270 270 270 271 271 270 270 270 270 270 270 271 272 273 274 274 275 276 276 276 275 275 275 274 274 275 275 275 275 276 276 276 276 276 276
264 264 263 263 264 265 265 266 266 267 267 267 267 267 267 268 268 269 270 270 271 271 271 271 271 271 271 271 271 272 273 274 274 275 275 276 276 276 275 275 275 275 275 275 275 275 275 275 274 274 275 275
265 265 265 265 265 266 266 266 267 267 267 266 266 266 267 268 268 269 269 270 270 270 270 271 271 271 271 271 272 272 273 273 274 274 275 275 275 275 275 275 275 275 275 276 276 275 275 274 273 273 274 274
265 265 265 265 265 265 265 265 265 266 266 267 268 268 269 269 269 269 269 270 270 270 270 270 271 271 271 272 272 272 273 273 274 274 274 275 275 275 275 275 275 275 275 275 275 275 274 274 273 273 273 272
263 264 264 264 263 263 263 264 266 267 268 269 270 271 271 271 271 271 271 271 270 270 271 271 271 272 272 272 273 273 273 274 274 274 275 275 275 275 275 276 276 276 276 275 275 275 274 274 273 273 273 272
262 263 264 264 264 265 266 267 268 269 270 271 272 273 273 273 273 273 273 273 273 272 272 273 273 273 273 274 274 274 274 274 274 275 275 275 275 276 276 276 276 277 277 277 276 276 275 275 275 274 274 273